Regional Weather Roundup
Issued by NWS Charleston, SC

Current Version | Previous Version | Graphics & Text | Print | Product List | Glossary On
Versions: 1 2 3 4 5 6 7 8 9 10 11 12 13 14 15 16 17 18 19 20 21 22 23 24 25 26 27 28 29 30 31 32 33 34 35 36 37 38 39 40 41 42 43 44 45 46 47 48 49 50
000
ASUS42 KCHS 200327
RWRCHS

REGIONAL WEATHER ROUNDUP
NATIONAL WEATHER SERVICE CHARLESTON SC
1000 PM EST SUN FEB 19 2017

NOTE: "FAIR" INDICATES FEW OR NO CLOUDS BELOW 12,000 FEET WITH NO
SIGNIFICANT WEATHER AND/OR OBSTRUCTIONS TO VISIBILITY.

NOT ALL STATIONS ARE QUALITY CONTROLLED. USE DATA WITH CAUTION...
ESPECIALLY DEWPOINT OBSERVATIONS.

SCZ027-030-031-034>040-042>050-200400-
...SOUTHEAST SOUTH CAROLINA...

CITY           SKY/WX    TMP DP  RH WIND       PRES   REMARKS
N CHARLESTON   CLEAR     58  48  69 NW5       30.08R
WATERFRONT PRK   N/A     65  51  60 CALM      30.07R
MOUNT PLEASANT LGT RAIN  54  50  87 CALM      30.09R
JOHNS ISLAND   FAIR      55  50  82 CALM      30.09R
PINOPOLIS        N/A     61  55  82 VRB3      29.99R
MONCKS CORNER  FAIR      50  46  87 CALM      30.09R
SUMMERVILLE    FAIR      54  48  82 CALM      30.10S
BEAUFORT MCAS  CLEAR     55  50  83 CALM      30.09R
BEAUFORT ARPT  FAIR      55  50  82 CALM      30.09R
HILTON HEAD IS CLEAR     55  54  94 CALM      30.10R
WALTERBORO     CLEAR     52  48  87 CALM      30.10R
ALLENDALE      FAIR      55  50  82 CALM      30.08S

...SOUTHERN MIDLANDS AND PEE DEE...

CITY           SKY/WX    TMP DP  RH WIND       PRES   REMARKS
GEORGETOWN     FAIR      48  46  93 CALM      30.09R
KINGSTREE      FAIR      50  45  81 CALM      30.09R
ORANGEBURG     CLEAR     55  49  80 CALM      30.09R
BARNWELL       FAIR      54  52  94 CALM      30.09S
AIKEN          FAIR      52  46  82 CALM      30.13S
MANNING        FAIR      50  46  87 MISG      30.09S
COLUMBIA       CLEAR     52  47  83 CALM      30.09R
SUMTER         CLEAR     54  47  75 CALM      30.07R
FLORENCE       CLEAR     51  47  86 NW3       30.08R
MYRTLE BEACH   CLEAR     55  48  76 CALM      30.09
N MYRTLE BEACH CLEAR     53  49  86 W3        30.07R

$$

GAZ063-065-086>088-099>101-113>116-118-119-134>141-150-200400-
...SOUTHEAST GEORGIA...

CITY           SKY/WX    TMP DP  RH WIND       PRES   REMARKS
SAVANNAH ARPT  CLEAR     57  49  74 CALM      30.09R
HUNTER AAF     CLEAR     57  52  83 CALM      30.06R
FORT STEWART   CLEAR     56  51  83 CALM      30.07R
STATESBORO     CLEAR     55  55 100 CALM      30.09S
SYLVANIA       CLEAR    N/A N/A N/A CALM      30.10S
CLAXTON        FAIR     N/A N/A N/A CALM      30.09S

...CSRA...CENTRAL AND FAR SOUTHEAST GEORGIA...

CITY           SKY/WX    TMP DP  RH WIND       PRES   REMARKS
THOMSON        CLEAR     53  52  99 CALM      30.14S
AUGUSTA-BUSH   CLEAR     53  48  83 CALM      30.08R
AUGUSTA-DANIEL CLEAR     63  47  55 N6        30.09S
SWAINSBORO     FAIR      54  52  94 CALM      30.10R
VIDALIA        CLEAR     59  55  88 CALM      30.09S
EASTMAN        FAIR      52  52 100 CALM      30.13R
HAZLEHURST     FAIR      57  55  93 CALM      30.09R
ALMA           CLEAR     55  53  93 CALM      30.09R
WAYCROSS       CLEAR     60  58  91 CALM      30.10R
JESUP          FAIR      55  52  88 CALM      30.09S
BAXLEY         FAIR      55  55 100 CALM      30.09R
BRUNSWICK      FOG       59  59 100 CALM      30.10R VSB<1/4
SAINT SIMONS   CLEAR     60  58  92 CALM      30.09R

$$

SCZ027-028-034-036>038-045-046-048>050-GAZ119-141-200400-
...LAKE AND SUPPLEMENTAL COASTAL OBSERVATIONS...

STATION/POSITION TIME  TEMP    WIND        PRES    WAVE   SWELL
                       AIR SEA DIR/SP/G            HT/PER HT/PER/DIR
                 (UTC) (F)     (DEG/KT/KT) (MB)    (FT/S) (FT/S/D)
WINYAH BAY       0230   60     320/  3     1018.0R
LAKE MURRAY      0320   55      CALM  /  1 1018.6R
ACE BASIN NERRS  0230   55        CALM     1018.0S
FORT PULASKI     0300   62 60  250/  2/  2 1019.0
SAPELO ISLAND    0300   58        CALM     1019.0

$$

ANZ835-935-AMZ111-154-330-350-352-354-370-450-454-472-200400-
...C-MAN AND BUOY OBSERVATIONS...

STATION/POSITION TIME  TEMP    WIND        PRES    WAVE   SWELL
                       AIR SEA DIR/SP/G            HT/PER HT/PER/DIR
                 (UTC) (F)     (DEG/KT/KT) (MB)    (FT/S) (FT/S/D)
BUOY 41004       0250   66 69  310/  8/ 10 1018.1R   1/ 6   2/120/ 6
BUOY 41008       0250   63 62  230/  4/  4 1018.8R   1
FOLLY BEACH CMAN 0300   62     300/  4/  4 1019.2R
CAPERS NEARSHORE 0308   61 60  340/  4/  6 1018.6R
FRIPP NEARSHORE  0308   61 60  240/  2/  4 1018.6R


STATION/POSITION TIME  TEMP    WIND        PRES    WAVE   SWELL
                       AIR SEA DIR/SP/G            HT/PER HT/PER/DIR
                 (UTC) (F)     (DEG/KT/KT) (MB)    (FT/S) (FT/S/D)
5E ST. MARYS GA  0300      64                N/A     1
FRYING PAN BUOY  0310   64 64  290/  8/ 10 1017.9
BUOY 41025       0250   63 67  350/  8/  8 1016.5R   2/ 8   2/150/ 8
CAPE LOOKOUT NC  0300   58     270/  5/  5 1016.6R
BUOY 41002       0250   69 71  340/ 16/ 19 1015.3R   5/ 7   2/160/10
BUOY 41010       NOT AVBL
ST AUGUSTINE FL  0300   65 67  170/  3/  3 1019.8R


$$




USA.gov is the U.S. government's official web portal to all federal, state and local government web resources and services.